[[{"header":{"parameterUnit":"m.s-1","parameterCategory":2,"la1":30.2991,"la2":30.254,"lo1":-89.0895,"lo2":-89.0444,"dy":0.0017,"dx":0.0017,"nx":28,"ny":28,"refTime":"2023-04-22T21:00:00:Z","depth":"0","parameterNumber":2,"parameterNumberName":"U-component_of_CURRENTS"},"data":[0,0,0,0,0,0,0,0,0,0,0,0,0,0,0,0,0,0,0,0,0,0,0,0,0,0,0,0,0,0,0,0,0,0,0,0,0,0,0,0,0,0,0,0,0,0,0,0,0,0,0,0,0,0,0,0,0,0,0.3653,0.3654,0,0.3716,0.3716,0.3716,0.3714,0.3714,0.3714,0.3714,0.3728,0.3728,0.3729,0,0,0,0,0,0,0,0,0,0,0,0,0,0.3496,0.3499,0.3653,0.3654,0.3656,0.3716,0.3716,0.3716,0.3714,0.3714,0.3714,0.3714,0.3727,0.3728,0.3729,0,0,0,0,0,0,0,0,0,0,0,0,0,0.3555,0.35,0.3652,0.3667,0.367,0.3716,0.3716,0.3716,0.3715,0.3714,0.3714,0.3714,0.3727,0.3728,0.3729,0.3739,0,0,0.3731,0.3732,0,0,0,0,0,0,0,0,0.3552,0.356,0.3664,0.3667,0.367,0.3714,0.3666,0.3724,0.3715,0.369,0.3714,0.3714,0.3723,0.3725,0.3727,0.374,0.374,0.3731,0.3732,0.3732,0.3732,0,0,0,0,0,0,0,0.3548,0.3557,0.367,0.3666,0.3669,0.366,0.3667,0.3677,0.3701,0.3692,0.3694,0.3713,0.3723,0.3726,0.3727,0.3741,0.3731,0.3732,0.3732,0.3733,0.3815,0.3817,0,0,0,0,0,0,0.3558,0.3554,0.3668,0.3673,0.3617,0.3664,0.3672,0.3694,0.3702,0.3705,0.3713,0.3713,0.3725,0.3726,0.3728,0.3788,0.3732,0.3733,0.3733,0.3813,0.3815,0.3817,0,0,0,0,0,0,0.3554,0.3567,0.3666,0.362,0.3633,0.3668,0.3692,0.3695,0.3705,0.372,0.372,0.372,0.3725,0.3727,0.3746,0.3786,0.3733,0.3734,0.3811,0.3814,0.3816,0.3877,0,0,0,0,0,0,0.3549,0.3566,0.3575,0.3621,0.3636,0.37,0.3693,0.3697,0.372,0.372,0.3726,0.3727,0.3725,0.3745,0.3747,0.3786,0.3735,0.3809,0.3813,0.3816,0.3873,0.3881,0.3888,0,0,0,0,0,0.3544,0.3567,0.3575,0.3589,0.3652,0.3702,0.3708,0.3725,0.3721,0.373,0.3736,0.3727,0.3767,0.3747,0.3748,0.3789,0.3808,0.3812,0.3815,0.3869,0.3879,0.3888,0,0,0,0,0,0,0.3503,0.3572,0.3581,0.3623,0.3662,0.3704,0.3718,0.373,0.3742,0.374,0.374,0.3742,0.3779,0.3773,0.375,0.3824,0.379,0.3794,0.383,0.384,0.3848,0.3857,0.3735,0,0,0,0,0,0.3501,0.3537,0.3594,0.3626,0.3645,0.3679,0.3699,0.3718,0.3743,0.3747,0.3753,0.3767,0.3797,0.3807,0.3823,0.3854,0.3946,0.3885,0.3893,0.39,0.391,0.4117,0.4146,0.383,0.383,0.383,0,0,0.3495,0.3539,0.3557,0.362,0.3646,0.3682,0.3688,0.3729,0.3756,0.3747,0.3771,0.3792,0.3811,0.3853,0.387,0.3852,0.4039,0.3905,0.391,0.3917,0.4124,0.4156,0.4184,0.3832,0.3832,0.3832,0,0,0.351,0.3538,0.3573,0.3606,0.3663,0.3687,0.3702,0.3748,0.3763,0.3798,0.3809,0.3858,0.3874,0.3916,0.3936,0.3997,0.4076,0.3997,0.4044,0.4245,0.4274,0.43,0.447,0.4511,0.4,0.4,0.4,0,0.3497,0.3554,0.3588,0.3629,0.3665,0.369,0.3734,0.3751,0.3797,0.3842,0.3811,0.3921,0.3915,0.4021,0.4022,0.4019,0.4139,0.4005,0.426,0.4288,0.4314,0.4482,0.4526,0.4003,0.4003,0.4003,0.4002,0,0.3544,0.358,0.3603,0.3663,0.37,0.3743,0.3786,0.3824,0.3844,0.3885,0.3988,0.4005,0.4094,0.4086,0.4055,0.4232,0.426,0.4253,0.4243,0.4351,0.4519,0.4564,0.4008,0.4007,0.4006,0.4005,0,0,0.354,0.3621,0.3626,0.3667,0.3728,0.3773,0.3825,0.3913,0.3994,0.4023,0.415,0.4172,0.4222,0.4246,0.4254,0.437,0.4627,0.4374,0.4383,0.4553,0.5084,0.5029,0.5073,0.4686,0.4694,0.47,0.5132,0,0.3566,0.3646,0.3682,0.3753,0.3801,0.3853,0.3912,0.3994,0.4064,0.4184,0.4244,0.435,0.4275,0.4343,0.4457,0.4583,0.4748,0.451,0.4943,0.4955,0.4904,0.5124,0.4994,0.5362,0.5177,0.5185,0.519,0,0.3602,0.3657,0.3732,0.3835,0.3863,0.3907,0.4058,0.4119,0.4277,0.4345,0.448,0.4541,0.4702,0.4627,0.4961,0.4824,0.4968,0.5052,0.5073,0.503,0.4986,0.5222,0.5452,0.5206,0.5261,0.5255,0.525,0,0.3608,0.3693,0.376,0.379,0.3903,0.3965,0.4031,0.4179,0.4278,0.4476,0.4594,0.479,0.4917,0.5127,0.5248,0.5171,0.5614,0.5557,0.5661,0.5658,0.5633,0.5614,0.5683,0.5862,0.5861,0.586,0.5859,0,0.3638,0.3701,0.3768,0.3812,0.3925,0.3988,0.4139,0.4242,0.4418,0.4561,0.4689,0.4846,0.5053,0.5285,0.5398,0.5671,0.5782,0.5735,0.5797,0.5645,0.5623,0.5468,0.5328,0.5876,0.5873,0.5869,0.5867,0,0.3686,0.3704,0.3807,0.3907,0.3936,0.4032,0.4187,0.4297,0.4458,0.4664,0.474,0.4984,0.5269,0.5464,0.5811,0.5879,0.597,0.619,0.5963,0.5987,0.5807,0.5675,0.5723,0.5565,0.6437,0.6438,0.644,0,0.3745,0.3791,0.3883,0.3921,0.3973,0.4092,0.4166,0.4312,0.4427,0.4725,0.4825,0.5144,0.5328,0.5805,0.6009,0.6313,0.6044,0.6353,0.6163,0.5835,0.5738,0.5474,0.5314,0.6181,0.618,0.618,0.6179,0,0.3873,0.3886,0.3943,0.3994,0.4051,0.4135,0.4244,0.4318,0.4493,0.466,0.4863,0.5033,0.5498,0.5718,0.6101,0.6263,0.6017,0.6347,0.6114,0.5643,0.5266,0.5127,0.5819,0.6173,0.6174,0.6174,0.6174,0.6175,0.3966,0.3997,0.3998,0.4046,0.4092,0.4092,0.4096,0.4212,0.4322,0.4493,0.4762,0.4984,0.5396,0.5901,0.5979,0.6046,0.6002,0.5975,0.5889,0.5684,0.5366,0.6006,0.633,0.6331,0.6332,0.6333,0.6334,0,0.3995,0.3968,0.4037,0.4001,0.3985,0.403,0.4067,0.4027,0.4044,0.4341,0.4511,0.4951,0.5196,0.5467,0.5744,0.5623,0.5388,0.5475,0.5064,0.4966,0.5685,0.5494,0.5517,0.5517,0.5518,0.5518,0.5518,0.5518,0.398,0.3952,0.3935,0.3843,0.3826,0.3706,0.3664,0.3652,0.3785,0.3983,0.4252,0.4568,0.4974,0.5269,0.5208,0.5114,0.4669,0.4574,0.4452,0.4908,0.4943,0.4977,0.4762,0.4632,0.4631,0.3593,0.3585,0.3579]},{"header":{"parameterUnit":"m.s-1","parameterCategory":2,"la1":30.2991,"la2":30.254,"lo1":-89.0895,"lo2":-89.0444,"dy":0.0017,"dx":0.0017,"nx":28,"ny":28,"refTime":"2023-04-22T21:00:00:Z","depth":"0","parameterNumber":3,"parameterNumberName":"V-component_of_CURRENTS"},"data":[0,0,0,0,0,0,0,0,0,0,0,0,0,0,0,0,0,0,0,0,0,0,0,0,0,0,0,0,0,0,0,0,0,0,0,0,0,0,0,0,0,0,0,0,0,0,0,0,0,0,0,0,0,0,0,0,0,0,-0.0452,-0.0453,0,-0.0579,-0.058,-0.0581,-0.0683,-0.0684,-0.0686,-0.0687,-0.0856,-0.0859,-0.0863,0,0,0,0,0,0,0,0,0,0,0,0,0,-0.0377,-0.0377,-0.0452,-0.0453,-0.0455,-0.0579,-0.058,-0.0582,-0.0683,-0.0684,-0.0686,-0.0687,-0.0855,-0.0859,-0.0863,0,0,0,0,0,0,0,0,0,0,0,0,0,-0.0445,-0.0377,-0.0451,-0.0522,-0.053,-0.0578,-0.058,-0.0582,-0.0683,-0.0684,-0.0686,-0.0688,-0.0854,-0.0859,-0.0864,-0.0859,0,0,-0.0879,-0.0881,0,0,0,0,0,0,0,0,-0.0441,-0.0448,-0.051,-0.0517,-0.0526,-0.0619,-0.0616,-0.0677,-0.0682,-0.0622,-0.0687,-0.0689,-0.0781,-0.0792,-0.0808,-0.0867,-0.0874,-0.088,-0.0883,-0.0885,-0.0886,0,0,0,0,0,0,0,-0.0436,-0.0443,-0.05,-0.0512,-0.0521,-0.0575,-0.0586,-0.0628,-0.0689,-0.0628,-0.0636,-0.0653,-0.0785,-0.0803,-0.0813,-0.0876,-0.0879,-0.0884,-0.0887,-0.0889,-0.0978,-0.0978,0,0,0,0,0,0,-0.0418,-0.0438,-0.0496,-0.0504,-0.0489,-0.0575,-0.0587,-0.0585,-0.0688,-0.0706,-0.0651,-0.0657,-0.0793,-0.0807,-0.082,-0.0822,-0.0885,-0.089,-0.0892,-0.0979,-0.0978,-0.0978,0,0,0,0,0,0,-0.0416,-0.0421,-0.0491,-0.0477,-0.049,-0.0574,-0.0572,-0.0587,-0.0606,-0.0706,-0.0724,-0.0654,-0.0795,-0.0812,-0.0849,-0.083,-0.0892,-0.0896,-0.098,-0.0979,-0.0978,-0.0827,0,0,0,0,0,0,-0.0413,-0.0419,-0.0405,-0.0475,-0.049,-0.0501,-0.0571,-0.0588,-0.0614,-0.0623,-0.0714,-0.0732,-0.0798,-0.084,-0.0854,-0.0838,-0.09,-0.0981,-0.0979,-0.0978,-0.0833,-0.0821,-0.0811,0,0,0,0,0,-0.0409,-0.0375,-0.0403,-0.041,-0.0469,-0.05,-0.0511,-0.0578,-0.0612,-0.0604,-0.067,-0.0729,-0.0843,-0.0843,-0.0859,-0.0845,-0.0981,-0.098,-0.0978,-0.0838,-0.0823,-0.0811,0,0,0,0,0,0,-0.0321,-0.0385,-0.0416,-0.04,-0.0442,-0.0518,-0.0515,-0.0562,-0.0606,-0.0612,-0.0712,-0.0732,-0.076,-0.082,-0.0818,-0.0869,-0.0925,-0.0927,-0.0813,-0.08,-0.0789,-0.0734,-0.0905,0,0,0,0,0,-0.0297,-0.0298,-0.0362,-0.0347,-0.0362,-0.0435,-0.0454,-0.0495,-0.0549,-0.0571,-0.0641,-0.0712,-0.0765,-0.0795,-0.085,-0.0867,-0.0851,-0.0873,-0.0862,-0.0852,-0.0819,-0.0798,-0.078,-0.0973,-0.0973,-0.0973,0,0,-0.026,-0.0294,-0.0294,-0.0331,-0.0367,-0.0372,-0.0449,-0.0461,-0.0466,-0.058,-0.06,-0.0669,-0.076,-0.0785,-0.0804,-0.0833,-0.0776,-0.085,-0.0841,-0.0813,-0.0794,-0.0775,-0.0757,-0.0972,-0.0972,-0.0972,0,0,-0.019,-0.0211,-0.0194,-0.022,-0.0266,-0.0307,-0.0304,-0.037,-0.0398,-0.0425,-0.0511,-0.0557,-0.0645,-0.0699,-0.0741,-0.0699,-0.0717,-0.0732,-0.0632,-0.0611,-0.0593,-0.0578,-0.0465,-0.0442,-0.0729,-0.0729,-0.0729,0,-0.0143,-0.0134,-0.019,-0.0181,-0.0195,-0.0271,-0.0252,-0.0282,-0.0353,-0.0362,-0.0411,-0.0511,-0.06,-0.0617,-0.0618,-0.067,-0.0628,-0.0671,-0.0591,-0.0576,-0.0563,-0.0452,-0.0427,-0.0721,-0.0722,-0.0723,-0.0724,0,-0.0075,-0.0066,-0.005,-0.0072,-0.0085,-0.0075,-0.013,-0.014,-0.0189,-0.0229,-0.0251,-0.0351,-0.0403,-0.0455,-0.0531,-0.0492,-0.0476,-0.0571,-0.061,-0.0533,-0.0422,-0.0399,-0.0711,-0.0713,-0.0716,-0.0717,0,0,0.0019,-0.0001,0.0004,0.0018,-0.0027,-0.0019,-0.0019,-0.0035,0.0002,-0.0078,-0.0026,-0.0159,-0.0195,-0.0243,-0.0333,-0.0338,-0.0216,-0.0406,-0.0409,-0.0265,-0.0078,-0.0124,-0.0104,-0.0294,-0.0291,-0.0289,-0.001,0,0.0086,0.0135,0.0094,0.0149,0.0173,0.0111,0.0133,0.0114,0.009,0.0131,0.0039,0.0054,-0.0117,-0.0105,-0.0143,-0.0185,-0.0159,-0.0276,-0.0199,-0.0194,-0.0225,-0.0083,-0.0093,0.0147,0.0012,0.0016,0.0019,0,0.016,0.0182,0.0248,0.0273,0.0281,0.0309,0.0349,0.036,0.0375,0.0369,0.0356,0.0308,0.0312,0.0154,0.0148,0.009,0.0027,-0.0024,-0.0017,-0.0099,-0.0201,0.0029,0.0193,-0.019,0.0053,0.005,0.0048,0,0.0266,0.0291,0.0355,0.0361,0.0379,0.0414,0.043,0.0443,0.0511,0.0564,0.0657,0.06,0.0664,0.0548,0.0414,0.0313,0.0436,0.028,0.0194,0.0195,0.0181,0.0173,0.0002,0.0285,0.0284,0.0283,0.0283,0,0.0355,0.0413,0.0423,0.0469,0.0581,0.0544,0.068,0.0685,0.0773,0.0923,0.0821,0.0959,0.0762,0.0778,0.0586,0.0513,0.0581,0.0282,0.0263,0.0237,0.023,-0.0115,-0.0281,0.0294,0.0292,0.029,0.0288,0,0.0487,0.0475,0.0574,0.0617,0.0645,0.0742,0.0861,0.097,0.1026,0.1243,0.1296,0.132,0.1345,0.1152,0.104,0.0797,0.0521,0.0612,0.0641,0.0615,0.0105,-0.0048,-0.0088,-0.0217,0.0601,0.0602,0.0602,0,0.0566,0.0625,0.0718,0.079,0.0826,0.0949,0.1052,0.1109,0.1247,0.1471,0.1617,0.1708,0.1786,0.1633,0.125,0.1002,0.0633,0.0764,0.05,0.0132,-0.0051,-0.017,-0.0286,0.0601,0.0601,0.0602,0.0602,0,0.0728,0.076,0.084,0.0974,0.1092,0.1237,0.1388,0.1535,0.1656,0.185,0.2097,0.2189,0.2061,0.1816,0.1429,0.117,0.0516,0.0757,0.0361,-0.0057,-0.0172,-0.0324,0.0413,0.0605,0.0604,0.0604,0.0604,0.0604,0.0864,0.0936,0.1014,0.1148,0.1296,0.1477,0.1616,0.1802,0.2044,0.2336,0.2427,0.2629,0.2226,0.1703,0.1309,0.0497,0.0539,0.0185,0.0059,-0.0008,-0.0248,0.0525,0.0652,0.0652,0.0652,0.0652,0.0652,0,0.0958,0.1013,0.1162,0.1306,0.1484,0.1531,0.1799,0.195,0.2232,0.2565,0.2777,0.2759,0.2157,0.1513,0.0503,-0.0108,-0.0353,-0.0462,-0.0679,-0.0749,-0.0065,-0.0202,-0.0239,-0.0239,-0.0239,-0.0238,-0.0238,-0.0238,0.1002,0.1102,0.1148,0.1403,0.1535,0.1759,0.1909,0.2166,0.2427,0.2817,0.3044,0.3212,0.2695,0.0806,-0.0573,-0.0886,-0.1339,-0.1353,-0.1585,-0.1237,-0.1191,-0.1147,-0.1326,-0.1598,-0.1599,-0.2245,-0.2252,-0.2257]}],[{"header":{"parameterUnit":"m.s-1","parameterCategory":2,"la1":30.2991,"la2":30.254,"lo1":-89.0895,"lo2":-89.0444,"dy":0.0017,"dx":0.0017,"nx":28,"ny":28,"refTime":"2023-04-22T21:00:00:Z","depth":"2","parameterNumber":2,"parameterNumberName":"U-component_of_CURRENTS"},"data":[0,0,0,0,0,0,0,0,0,0,0,0,0,0,0,0,0,0,0,0,0,0,0,0,0,0,0,0,0,0,0,0,0,0,0,0,0,0,0,0,0,0,0,0,0,0,0,0,0,0,0,0,0,0,0,0,0,0,0.2928,0.2929,0,0.296,0.296,0.296,0.3009,0.301,0.301,0.3011,0.3073,0.3074,0.3075,0,0,0,0,0,0,0,0,0,0,0,0,0,0.2829,0.2831,0.2928,0.2929,0.2929,0.296,0.296,0.2961,0.3009,0.301,0.3011,0.3011,0.3073,0.3074,0.3075,0,0,0,0,0,0,0,0,0,0,0,0,0,0.2868,0.2832,0.2928,0.2956,0.2959,0.2959,0.296,0.2961,0.3009,0.301,0.3011,0.3012,0.3072,0.3074,0.3075,0.306,0,0,0.3079,0.308,0,0,0,0,0,0,0,0,0.2866,0.2872,0.2952,0.2954,0.2957,0.2981,0.2948,0.2995,0.3008,0.2991,0.3011,0.3012,0.3043,0.3047,0.3052,0.3063,0.3066,0.3079,0.308,0.3081,0.3081,0,0,0,0,0,0,0,0.2864,0.2871,0.2942,0.2952,0.2955,0.2939,0.2946,0.2956,0.3011,0.2992,0.2996,0.2997,0.3045,0.305,0.3053,0.3067,0.3079,0.3081,0.3081,0.3082,0.3198,0.3201,0,0,0,0,0,0,0.2861,0.2869,0.2941,0.2943,0.2912,0.294,0.2948,0.2973,0.3011,0.3017,0.2996,0.2999,0.3047,0.3052,0.3056,0.3145,0.3081,0.3082,0.3083,0.3196,0.3199,0.3201,0,0,0,0,0,0,0.2859,0.2868,0.2939,0.2904,0.2912,0.2941,0.2967,0.2973,0.2993,0.3013,0.3021,0.3012,0.3048,0.3054,0.3098,0.3143,0.3083,0.3084,0.3194,0.3197,0.32,0.3255,0,0,0,0,0,0,0.2857,0.2868,0.2885,0.2905,0.2914,0.2953,0.2966,0.2972,0.299,0.2995,0.3029,0.3035,0.305,0.3096,0.31,0.3144,0.3085,0.3191,0.3195,0.3199,0.3251,0.326,0.3268,0,0,0,0,0,0.2853,0.2863,0.2886,0.2894,0.2937,0.2953,0.2957,0.298,0.299,0.3002,0.3039,0.3035,0.3126,0.3098,0.3102,0.3148,0.3189,0.3194,0.3199,0.3247,0.3258,0.3268,0,0,0,0,0,0,0.2834,0.2869,0.2895,0.2919,0.2944,0.2962,0.2972,0.2983,0.3018,0.3035,0.3051,0.306,0.3119,0.3123,0.3092,0.3198,0.3162,0.3168,0.3197,0.3208,0.3217,0.3233,0.3086,0,0,0,0,0,0.2837,0.2855,0.289,0.2911,0.2928,0.2953,0.2962,0.2984,0.3012,0.3029,0.3056,0.3096,0.3138,0.3164,0.3194,0.3238,0.3278,0.3276,0.3285,0.3293,0.3311,0.3446,0.3469,0.3218,0.3218,0.3218,0,0,0.2832,0.2856,0.2865,0.2908,0.2932,0.2961,0.2963,0.299,0.302,0.3029,0.3087,0.312,0.3155,0.322,0.3248,0.3233,0.3376,0.3299,0.3305,0.332,0.3454,0.3479,0.35,0.3222,0.3221,0.322,0,0,0.2828,0.2862,0.288,0.2905,0.2947,0.2967,0.2977,0.3016,0.3046,0.3091,0.3125,0.3191,0.323,0.3288,0.3315,0.3387,0.3414,0.3398,0.3463,0.3593,0.3615,0.3635,0.3676,0.37,0.3409,0.3409,0.3409,0,0.2811,0.2863,0.2884,0.2916,0.2946,0.2972,0.3011,0.3034,0.3084,0.3138,0.3119,0.3253,0.3267,0.3383,0.3412,0.3408,0.3465,0.3414,0.3606,0.3627,0.3647,0.3685,0.371,0.3413,0.3412,0.3412,0.3412,0,0.2841,0.2878,0.2891,0.2948,0.298,0.3013,0.306,0.311,0.3145,0.3188,0.3302,0.3338,0.3436,0.3444,0.3444,0.3601,0.3587,0.3597,0.3578,0.3676,0.3708,0.3734,0.3417,0.3416,0.3415,0.3414,0,0,0.2801,0.289,0.2895,0.2945,0.3009,0.3041,0.3111,0.32,0.3282,0.3327,0.3448,0.3508,0.3559,0.3595,0.3622,0.3717,0.3871,0.3722,0.3727,0.3759,0.4123,0.4018,0.4034,0.3937,0.3943,0.3948,0.4074,0,0.2817,0.2883,0.293,0.3003,0.305,0.3118,0.3182,0.3271,0.3352,0.3472,0.3542,0.3655,0.3607,0.3684,0.3771,0.3885,0.3949,0.3832,0.4026,0.403,0.3926,0.4066,0.3723,0.3802,0.4099,0.4103,0.4106,0,0.2837,0.2884,0.2959,0.3069,0.3099,0.3147,0.3307,0.3375,0.3539,0.3612,0.3746,0.3812,0.3974,0.3905,0.4124,0.4067,0.4092,0.4133,0.414,0.4048,0.3976,0.3763,0.3837,0.4148,0.4145,0.4142,0.4139,0,0.2822,0.2907,0.2975,0.3008,0.3127,0.3198,0.3274,0.343,0.3547,0.3738,0.3866,0.4021,0.415,0.4246,0.4324,0.4266,0.4538,0.447,0.4369,0.4358,0.4105,0.4063,0.459,0.4589,0.4589,0.4589,0.4588,0,0.2825,0.288,0.2975,0.3017,0.3121,0.3208,0.3356,0.3465,0.3668,0.3821,0.3953,0.4096,0.4257,0.4415,0.4425,0.4504,0.4631,0.4413,0.4419,0.4106,0.4066,0.4397,0.4374,0.4593,0.4592,0.4591,0.4591,0,0.2807,0.2863,0.2948,0.3071,0.3119,0.32,0.3405,0.3519,0.3714,0.3934,0.4019,0.4251,0.4412,0.4525,0.469,0.4646,0.4717,0.4679,0.4259,0.4213,0.4399,0.4376,0.4592,0.459,0.4589,0.4587,0.4586,0,0.2819,0.2867,0.2977,0.3015,0.3074,0.3204,0.33,0.3519,0.366,0.3991,0.4099,0.4335,0.4425,0.4637,0.4597,0.4617,0.4679,0.4315,0.4127,0.4433,0.4417,0.4397,0.4377,0.3787,0.3779,0.3773,0.3768,0,0.2854,0.2882,0.2923,0.299,0.3082,0.3204,0.3365,0.3467,0.3723,0.388,0.4068,0.4177,0.4361,0.4235,0.4304,0.4252,0.4296,0.4186,0.4707,0.3838,0.3685,0.3665,0.3671,0.3713,0.3719,0.3723,0.3726,0.3728,0.2852,0.2857,0.2885,0.294,0.3067,0.316,0.3163,0.3318,0.3458,0.3608,0.3826,0.3858,0.3956,0.3838,0.3761,0.3712,0.3955,0.3795,0.381,0.3832,0.3716,0.357,0.3549,0.3553,0.3557,0.356,0.3563,0,0.2768,0.2771,0.2836,0.2865,0.2942,0.3062,0.3173,0.312,0.3121,0.3319,0.3384,0.3149,0.3123,0.3237,0.3073,0.3101,0.3026,0.2989,0.2858,0.2917,0.2969,0.2803,0.2397,0.2393,0.2389,0.2385,0,0,0.2702,0.265,0.2665,0.2714,0.2782,0.2788,0.2788,0.2724,0.2791,0.2702,0.2704,0.2944,0.3154,0.2705,0.2673,0.2522,0.2691,0.2428,0.3371,0.3277,0.3323,0.3454,0.3269,0,0,0,0,0]},{"header":{"parameterUnit":"m.s-1","parameterCategory":2,"la1":30.2991,"la2":30.254,"lo1":-89.0895,"lo2":-89.0444,"dy":0.0017,"dx":0.0017,"nx":28,"ny":28,"refTime":"2023-04-22T21:00:00:Z","depth":"2","parameterNumber":3,"parameterNumberName":"V-component_of_CURRENTS"},"data":[0,0,0,0,0,0,0,0,0,0,0,0,0,0,0,0,0,0,0,0,0,0,0,0,0,0,0,0,0,0,0,0,0,0,0,0,0,0,0,0,0,0,0,0,0,0,0,0,0,0,0,0,0,0,0,0,0,0,0.0015,0.0014,0,-0.0105,-0.0107,-0.0109,-0.0202,-0.0202,-0.0203,-0.0203,-0.0354,-0.0357,-0.0361,0,0,0,0,0,0,0,0,0,0,0,0,0,0.0089,0.0088,0.0015,0.0014,0.0013,-0.0105,-0.0107,-0.0109,-0.0202,-0.0202,-0.0203,-0.0203,-0.0353,-0.0357,-0.0361,0,0,0,0,0,0,0,0,0,0,0,0,0,0.0018,0.0088,0.0015,-0.0045,-0.0051,-0.0104,-0.0107,-0.011,-0.0201,-0.0202,-0.0203,-0.0204,-0.0351,-0.0357,-0.0362,-0.0381,0,0,-0.0378,-0.0381,0,0,0,0,0,0,0,0,0.0022,0.0015,-0.0035,-0.004,-0.0047,-0.0135,-0.0136,-0.02,-0.0201,-0.0149,-0.0203,-0.0204,-0.028,-0.0291,-0.0318,-0.0388,-0.0394,-0.0379,-0.0382,-0.0384,-0.0386,0,0,0,0,0,0,0,0.0027,0.0019,-0.0037,-0.0036,-0.0043,-0.009,-0.0101,-0.0149,-0.0213,-0.0154,-0.0159,-0.0165,-0.0285,-0.0313,-0.0323,-0.0396,-0.0379,-0.0383,-0.0387,-0.0389,-0.0498,-0.0497,0,0,0,0,0,0,0.0056,0.0024,-0.0033,-0.004,-0.0009,-0.009,-0.0103,-0.011,-0.0212,-0.0227,-0.0165,-0.0169,-0.0303,-0.0316,-0.0328,-0.035,-0.0384,-0.0389,-0.0392,-0.0498,-0.0498,-0.0497,0,0,0,0,0,0,0.0058,0.0052,-0.0029,-0.0007,-0.002,-0.009,-0.0098,-0.0112,-0.014,-0.0219,-0.0236,-0.0177,-0.0305,-0.0321,-0.0375,-0.0357,-0.0392,-0.0397,-0.0498,-0.0498,-0.0497,-0.0398,0,0,0,0,0,0,0.006,0.0053,0.0056,-0.0005,-0.002,-0.0053,-0.0097,-0.0114,-0.014,-0.0148,-0.0236,-0.0251,-0.0306,-0.0366,-0.038,-0.0365,-0.0401,-0.0499,-0.0498,-0.0498,-0.0402,-0.0394,-0.0388,0,0,0,0,0,0.0063,0.0073,0.0056,0.0049,-0.0014,-0.0052,-0.0064,-0.012,-0.014,-0.0149,-0.0212,-0.0248,-0.0372,-0.0371,-0.0387,-0.0373,-0.0499,-0.0498,-0.0498,-0.0405,-0.0396,-0.0388,0,0,0,0,0,0,0.0102,0.0063,0.0043,0.004,0.0002,-0.0066,-0.0075,-0.011,-0.0168,-0.0175,-0.0252,-0.0271,-0.0312,-0.0357,-0.0353,-0.0403,-0.0438,-0.044,-0.0362,-0.0354,-0.0347,-0.0312,-0.0405,0,0,0,0,0,0.0116,0.0117,0.0067,0.0065,0.0051,-0.0009,-0.0031,-0.0067,-0.0122,-0.0148,-0.0209,-0.027,-0.0321,-0.0348,-0.0404,-0.0431,-0.0469,-0.0431,-0.0424,-0.0417,-0.04,-0.0428,-0.0421,-0.0495,-0.0495,-0.0495,0,0,0.0132,0.0112,0.0111,0.0074,0.004,0.0025,-0.0026,-0.005,-0.0064,-0.0154,-0.0193,-0.0252,-0.0325,-0.0361,-0.0381,-0.0395,-0.0424,-0.0416,-0.041,-0.0397,-0.0426,-0.0419,-0.0412,-0.0494,-0.0495,-0.0495,0,0,0.0167,0.0146,0.0157,0.0131,0.0094,0.0056,0.0057,-0.0006,-0.0035,-0.0078,-0.0143,-0.0186,-0.027,-0.0313,-0.0345,-0.0331,-0.0389,-0.0349,-0.0282,-0.0308,-0.0302,-0.0297,-0.0361,-0.0362,-0.0341,-0.034,-0.034,0,0.0191,0.0192,0.0153,0.0154,0.0143,0.0079,0.0083,0.0044,-0.0029,-0.0038,-0.0076,-0.0176,-0.0242,-0.027,-0.0272,-0.0312,-0.035,-0.0306,-0.0297,-0.0292,-0.0288,-0.0355,-0.0357,-0.0336,-0.0336,-0.0337,-0.0337,0,0.0226,0.0227,0.0232,0.0214,0.0196,0.019,0.0139,0.0119,0.008,0.0042,0.0005,-0.0084,-0.0133,-0.0165,-0.0219,-0.0221,-0.0267,-0.0286,-0.031,-0.0274,-0.0348,-0.0352,-0.0329,-0.033,-0.0332,-0.0333,0,0,0.0279,0.0263,0.0265,0.0276,0.023,0.0226,0.021,0.0187,0.0201,0.0125,0.0138,0.0039,0.0005,-0.0034,-0.0101,-0.0131,-0.0158,-0.019,-0.0193,-0.024,-0.0242,-0.0264,-0.0273,-0.0171,-0.0171,-0.017,-0.0313,0,0.0319,0.0349,0.0321,0.0347,0.0357,0.0309,0.031,0.0283,0.0249,0.0243,0.0168,0.0146,0.0052,0.0041,-0.0005,-0.0101,-0.016,-0.0119,-0.0282,-0.0287,-0.0299,-0.0274,-0.0234,-0.0355,-0.0318,-0.0319,-0.0319,0,0.0358,0.0377,0.0416,0.0433,0.0436,0.0445,0.0456,0.0449,0.0421,0.0398,0.0363,0.0299,0.0247,0.0164,0.0015,0.0048,-0.0093,-0.0186,-0.0194,-0.0244,-0.0315,-0.0383,-0.0365,-0.0327,-0.0327,-0.0326,-0.0326,0,0.0424,0.0443,0.0487,0.0489,0.0494,0.0518,0.0524,0.0507,0.0535,0.0512,0.0538,0.0441,0.0419,0.0262,0.0064,0.0044,-0.0108,-0.0162,-0.0333,-0.0339,-0.0351,-0.0357,-0.0291,-0.0291,-0.0291,-0.0291,-0.029,0,0.0475,0.051,0.0533,0.056,0.0632,0.0607,0.0681,0.0669,0.0689,0.0749,0.064,0.0655,0.0448,0.0331,0.0121,-0.0099,-0.0069,-0.0314,-0.0362,-0.032,-0.0321,-0.0327,-0.0329,-0.0296,-0.0295,-0.0294,-0.0293,0,0.053,0.0541,0.0602,0.0642,0.0668,0.0723,0.0794,0.0846,0.0854,0.0933,0.0941,0.0836,0.0669,0.0433,0.0171,-0.0009,-0.0229,-0.0337,-0.029,-0.0328,-0.0473,-0.0468,-0.0536,-0.0537,-0.0538,-0.054,-0.0541,0,0.0554,0.0597,0.0677,0.0722,0.0746,0.0828,0.089,0.0928,0.0996,0.104,0.1092,0.0958,0.088,0.0494,0.0126,-0.0234,-0.0284,-0.0423,-0.0457,-0.045,-0.0491,-0.0484,-0.0478,-0.0462,-0.0462,-0.0462,-0.0462,0,0.0605,0.0641,0.069,0.0796,0.0878,0.0978,0.1077,0.1169,0.123,0.1297,0.1344,0.1293,0.0908,0.0559,0.0076,-0.0171,-0.0349,-0.0441,-0.0422,-0.0391,-0.0388,-0.0425,-0.042,-0.0464,-0.0464,-0.0464,-0.0464,-0.0464,0.0638,0.069,0.0765,0.0877,0.0973,0.112,0.1228,0.1335,0.1476,0.1584,0.1512,0.1447,0.1049,0.0418,0.0017,-0.0407,-0.0424,-0.0545,-0.0542,-0.0539,-0.0489,-0.0486,-0.0576,-0.0576,-0.0576,-0.0577,-0.0577,0,0.0674,0.0745,0.0837,0.0984,0.1112,0.1159,0.1346,0.1459,0.1637,0.1691,0.1713,0.1346,0.0957,0.0507,-0.0123,-0.0491,-0.0516,-0.0593,-0.0535,-0.0531,-0.0528,-0.0476,-0.0561,-0.0561,-0.0562,-0.0563,0,0,0.0689,0.0792,0.0864,0.1091,0.1199,0.139,0.1511,0.1659,0.1743,0.1784,0.174,0.1612,0.1094,0.0651,0.0133,-0.0202,-0.0276,-0.0272,-0.0249,-0.0117,-0.0109,-0.0472,-0.0384,0,0,0,0,0]}],[{"header":{"parameterUnit":"m.s-1","parameterCategory":2,"la1":30.2991,"la2":30.254,"lo1":-89.0895,"lo2":-89.0444,"dy":0.0017,"dx":0.0017,"nx":28,"ny":28,"refTime":"2023-04-22T21:00:00:Z","depth":"4","parameterNumber":2,"parameterNumberName":"U-component_of_CURRENTS"},"data":[0,0,0,0,0,0,0,0,0,0,0,0,0,0,0,0,0,0,0,0,0,0,0,0,0,0,0,0,0,0,0,0,0,0,0,0,0,0,0,0,0,0,0,0,0,0,0,0,0,0,0,0,0,0,0,0,0,0,0.1699,0.17,0,0.1792,0.1793,0.1793,0.1852,0.1853,0.1853,0.1854,0.1922,0.1923,0.1924,0,0,0,0,0,0,0,0,0,0,0,0,0,0.1577,0.1579,0.1699,0.17,0.1702,0.1791,0.1793,0.1794,0.1852,0.1853,0.1853,0.1854,0.1921,0.1923,0.1924,0,0,0,0,0,0,0,0,0,0,0,0,0,0.1645,0.158,0.1699,0.1742,0.1747,0.1791,0.1793,0.1794,0.1852,0.1853,0.1853,0.1854,0.1921,0.1923,0.1925,0.1924,0,0,0.1931,0.1932,0,0,0,0,0,0,0,0,0.1641,0.1649,0.1735,0.1739,0.1745,0.1812,0.1775,0.1837,0.1852,0.1811,0.1854,0.1854,0.1883,0.1888,0.1903,0.1927,0.193,0.1931,0.1933,0.1933,0.1934,0,0,0,0,0,0,0,0.1636,0.1646,0.1735,0.1736,0.1742,0.1759,0.1769,0.1787,0.1841,0.1815,0.182,0.1831,0.1885,0.1901,0.1905,0.1931,0.1931,0.1933,0.1934,0.1935,0.2059,0.2061,0,0,0,0,0,0,0.1626,0.1641,0.1732,0.1738,0.1695,0.176,0.1772,0.1789,0.1841,0.1851,0.1831,0.1834,0.1897,0.1902,0.1907,0.2009,0.1933,0.1935,0.1937,0.2057,0.206,0.2062,0,0,0,0,0,0,0.1623,0.1634,0.1728,0.1692,0.1705,0.1762,0.1781,0.179,0.1847,0.1854,0.1862,0.1882,0.1898,0.1904,0.1964,0.2008,0.1936,0.1938,0.2055,0.2058,0.2061,0.2148,0,0,0,0,0,0,0.1619,0.1632,0.1664,0.1691,0.1707,0.1786,0.178,0.1792,0.1851,0.1857,0.19,0.1905,0.1899,0.1961,0.1966,0.2009,0.194,0.2052,0.2056,0.206,0.2142,0.2153,0.2163,0,0,0,0,0,0.1615,0.1648,0.1665,0.1677,0.1741,0.1788,0.1799,0.1839,0.1853,0.189,0.192,0.1905,0.1989,0.1965,0.197,0.2015,0.205,0.2055,0.206,0.2138,0.2151,0.2163,0,0,0,0,0,0,0.1617,0.1658,0.1677,0.1724,0.1769,0.1799,0.1843,0.1864,0.1917,0.1933,0.1934,0.1942,0.201,0.2002,0.1975,0.2062,0.2016,0.2022,0.2074,0.2086,0.2096,0.2094,0.1942,0,0,0,0,0,0.1629,0.1667,0.1706,0.1751,0.1776,0.1818,0.185,0.1877,0.1916,0.1942,0.1972,0.1999,0.2026,0.2049,0.2072,0.2121,0.2128,0.2152,0.2163,0.2171,0.2174,0.224,0.2256,0.2077,0.2077,0.2077,0,0,0.1642,0.1672,0.1695,0.1755,0.1794,0.1835,0.1841,0.1903,0.1942,0.1939,0.2018,0.2043,0.2049,0.2107,0.2135,0.211,0.2228,0.2177,0.2185,0.2182,0.2246,0.2264,0.2279,0.208,0.208,0.2079,0,0,0.1669,0.1717,0.1752,0.1793,0.1858,0.1881,0.1908,0.1966,0.2005,0.2073,0.208,0.2133,0.2181,0.2194,0.2202,0.2282,0.2283,0.2298,0.2349,0.2414,0.2429,0.2442,0.2479,0.2495,0.2301,0.2301,0.2301,0,0.1686,0.1734,0.1773,0.1816,0.1856,0.1905,0.1951,0.1992,0.2065,0.21,0.2112,0.2208,0.2216,0.2273,0.2303,0.2305,0.234,0.2301,0.2428,0.2441,0.2453,0.2487,0.2504,0.2306,0.2305,0.2305,0.2304,0,0.1724,0.1779,0.1809,0.1873,0.1922,0.1977,0.2028,0.2091,0.2142,0.2177,0.2273,0.2302,0.2357,0.2371,0.2362,0.2455,0.2452,0.2436,0.2396,0.2477,0.2507,0.2523,0.2313,0.2311,0.2309,0.2308,0,0,0.171,0.1814,0.1828,0.1867,0.1961,0.1995,0.2075,0.215,0.2205,0.2286,0.2365,0.2421,0.2458,0.2469,0.2482,0.2533,0.2647,0.2534,0.2535,0.2568,0.2794,0.2616,0.2616,0.2674,0.2677,0.2679,0.2781,0,0.1733,0.181,0.1862,0.1944,0.1988,0.2062,0.2124,0.2199,0.2275,0.2365,0.2418,0.2503,0.2488,0.2544,0.2593,0.2632,0.2693,0.262,0.2711,0.2713,0.2544,0.2629,0.2689,0.2793,0.2796,0.2799,0.2801,0,0.1743,0.1798,0.1879,0.1976,0.2004,0.2062,0.2178,0.2247,0.2368,0.2434,0.2534,0.2588,0.2681,0.2666,0.2778,0.2744,0.2785,0.2808,0.2812,0.2623,0.2563,0.2694,0.2829,0.2826,0.2824,0.2823,0.2821,0,0.1691,0.1802,0.1868,0.1905,0.2022,0.2082,0.2157,0.2276,0.2337,0.2508,0.258,0.2691,0.2779,0.284,0.2887,0.2863,0.3004,0.2966,0.2845,0.2833,0.2923,0.2907,0.307,0.307,0.307,0.3069,0.3069,0,0.167,0.1723,0.1855,0.1889,0.1966,0.207,0.2167,0.2261,0.24,0.2476,0.2625,0.27,0.284,0.2924,0.294,0.293,0.3051,0.2866,0.2854,0.2956,0.2944,0.2934,0.2917,0.3073,0.3072,0.3072,0.3071,0,0.159,0.1681,0.1757,0.1897,0.1943,0.2004,0.2153,0.221,0.2377,0.2493,0.2561,0.2747,0.2864,0.2958,0.3075,0.2986,0.2998,0.2977,0.3088,0.3078,0.2771,0.2758,0.2832,0.2827,0.2823,0.2819,0.2816,0,0.1547,0.1584,0.174,0.1771,0.184,0.1948,0.2006,0.2181,0.2239,0.2483,0.251,0.272,0.2823,0.2834,0.2948,0.2981,0.2956,0.2938,0.2839,0.2769,0.2751,0.2745,0.2737,0.2808,0.2807,0.2806,0.2805,0,0.1454,0.1531,0.1586,0.166,0.1731,0.1803,0.1909,0.1946,0.215,0.2317,0.2419,0.251,0.2649,0.273,0.2802,0.2809,0.2919,0.289,0.2898,0.2805,0.2741,0.2726,0.2724,0.2789,0.2792,0.2793,0.2794,0,0.1371,0.1384,0.1459,0.1513,0.1587,0.1628,0.1721,0.18,0.1893,0.2166,0.2197,0.2425,0.2618,0.2644,0.2687,0.2701,0.2655,0.2549,0.2574,0.2592,0.2466,0.2347,0.2276,0,0,0,0,0,0.1272,0.1265,0.1295,0.1345,0.1417,0.148,0.1619,0.172,0.1936,0.1947,0.2066,0.2185,0.2304,0.2413,0.2383,0.2577,0.2658,0.2528,0.2545,0.2703,0.2721,0.2594,0,0,0,0,0,0,0.1189,0.121,0.1236,0.119,0.121,0.128,0.1386,0.1545,0.1557,0.1791,0.1866,0.2036,0.218,0.23,0.2336,0.2369,0.233,0.2663,0.2657,0.2693,0.2709,0.2724,0.26,0,0,0,0,0]},{"header":{"parameterUnit":"m.s-1","parameterCategory":2,"la1":30.2991,"la2":30.254,"lo1":-89.0895,"lo2":-89.0444,"dy":0.0017,"dx":0.0017,"nx":28,"ny":28,"refTime":"2023-04-22T21:00:00:Z","depth":"4","parameterNumber":3,"parameterNumberName":"V-component_of_CURRENTS"},"data":[0,0,0,0,0,0,0,0,0,0,0,0,0,0,0,0,0,0,0,0,0,0,0,0,0,0,0,0,0,0,0,0,0,0,0,0,0,0,0,0,0,0,0,0,0,0,0,0,0,0,0,0,0,0,0,0,0,0,0.0112,0.0112,0,0.0026,0.0024,0.0023,-0.0024,-0.0024,-0.0024,-0.0024,-0.0111,-0.0114,-0.0116,0,0,0,0,0,0,0,0,0,0,0,0,0,0.0164,0.0163,0.0112,0.0112,0.0111,0.0026,0.0024,0.0023,-0.0024,-0.0024,-0.0024,-0.0024,-0.0111,-0.0113,-0.0116,0,0,0,0,0,0,0,0,0,0,0,0,0,0.0113,0.0163,0.0113,0.0079,0.0075,0.0026,0.0024,0.0023,-0.0024,-0.0024,-0.0024,-0.0024,-0.011,-0.0113,-0.0117,-0.0143,0,0,-0.0128,-0.013,0,0,0,0,0,0,0,0,0.0116,0.0111,0.0085,0.0081,0.0077,0.0014,0.0011,-0.0032,-0.0025,0.001,-0.0024,-0.0024,-0.0068,-0.0075,-0.0096,-0.0148,-0.0151,-0.0128,-0.0131,-0.0132,-0.0133,0,0,0,0,0,0,0,0.012,0.0114,0.0075,0.0084,0.0079,0.0043,0.0037,0.0002,-0.0031,0.0007,0.0004,-0.0001,-0.007,-0.0092,-0.0098,-0.0153,-0.0128,-0.0131,-0.0134,-0.0135,-0.0209,-0.0209,0,0,0,0,0,0,0.014,0.0118,0.0078,0.0073,0.0101,0.0043,0.0035,0.0032,-0.0031,-0.0039,-0.0001,-0.0003,-0.0086,-0.0094,-0.0101,-0.0119,-0.0132,-0.0136,-0.0138,-0.0209,-0.0209,-0.0209,0,0,0,0,0,0,0.0141,0.0137,0.0082,0.0095,0.0086,0.0043,0.0038,0.003,0.001,-0.0036,-0.0045,-0.0011,-0.0086,-0.0096,-0.0137,-0.0123,-0.0137,-0.0141,-0.0209,-0.0209,-0.0209,-0.0165,0,0,0,0,0,0,0.0143,0.0138,0.014,0.0097,0.0086,0.0055,0.0038,0.0028,0.0008,0.0005,-0.0048,-0.0056,-0.0087,-0.0131,-0.014,-0.0128,-0.0143,-0.021,-0.0209,-0.0209,-0.0167,-0.0163,-0.016,0,0,0,0,0,0.0145,0.0146,0.014,0.0136,0.0091,0.0056,0.0046,0.0014,0.0008,-0.0003,-0.0041,-0.0054,-0.0134,-0.0135,-0.0145,-0.0134,-0.021,-0.0209,-0.0209,-0.0168,-0.0164,-0.016,0,0,0,0,0,0,0.0164,0.0141,0.0133,0.0126,0.0097,0.0049,0.0038,0.0018,-0.0022,-0.0022,-0.0066,-0.0077,-0.0105,-0.0128,-0.0127,-0.0152,-0.0168,-0.017,-0.0134,-0.013,-0.0127,-0.011,-0.0146,0,0,0,0,0,0.0172,0.0171,0.0138,0.0132,0.0122,0.0082,0.0064,0.0043,0.0005,-0.0012,-0.0048,-0.0082,-0.0112,-0.0127,-0.0162,-0.0183,-0.0223,-0.0178,-0.0174,-0.0171,-0.0165,-0.0217,-0.0218,-0.0207,-0.0207,-0.0207,0,0,0.0179,0.0166,0.0165,0.0137,0.0113,0.01,0.0071,0.0049,0.0038,-0.0015,-0.0042,-0.0078,-0.0118,-0.0142,-0.0154,-0.0157,-0.02,-0.017,-0.0168,-0.0163,-0.0217,-0.0218,-0.0219,-0.0206,-0.0207,-0.0207,0,0,0.0192,0.0181,0.0185,0.0165,0.0138,0.0113,0.0112,0.0067,0.0049,0.0015,-0.0018,-0.0048,-0.0099,-0.0123,-0.014,-0.0139,-0.0185,-0.0142,-0.0109,-0.0159,-0.0161,-0.0162,-0.0233,-0.0241,-0.0134,-0.0134,-0.0134,0,0.0202,0.0204,0.0178,0.0175,0.0167,0.0126,0.0126,0.0097,0.0045,0.0036,0.0016,-0.0052,-0.0087,-0.0109,-0.0108,-0.013,-0.0176,-0.0121,-0.0155,-0.0158,-0.016,-0.0232,-0.0242,-0.0132,-0.0132,-0.0132,-0.0132,0,0.0215,0.0218,0.0218,0.0207,0.0192,0.0184,0.015,0.0133,0.011,0.0081,0.0049,-0.0009,-0.0042,-0.0056,-0.0085,-0.0108,-0.0143,-0.0151,-0.0165,-0.0159,-0.0235,-0.0246,-0.0128,-0.0129,-0.013,-0.013,0,0,0.0237,0.0232,0.0233,0.0242,0.0213,0.0204,0.0193,0.0173,0.0173,0.012,0.011,0.0055,0.0027,0.0005,-0.0033,-0.0075,-0.0142,-0.0115,-0.0119,-0.0185,-0.0277,-0.0247,-0.0258,-0.016,-0.0161,-0.0162,-0.033,0,0.0258,0.0274,0.0261,0.0276,0.0281,0.0254,0.0251,0.0228,0.0196,0.0172,0.012,0.0091,0.005,0.0036,-0.0014,-0.0109,-0.0166,-0.0097,-0.0273,-0.0279,-0.0252,-0.0266,-0.0165,-0.0339,-0.0341,-0.0343,-0.0344,0,0.0274,0.0288,0.0313,0.0327,0.0328,0.0333,0.0333,0.0324,0.0283,0.0258,0.0218,0.0163,0.0097,0.0062,-0.0098,-0.0055,-0.0159,-0.0239,-0.0247,-0.0238,-0.0268,-0.0343,-0.0365,-0.0363,-0.0362,-0.036,-0.0359,0,0.0306,0.0322,0.0353,0.0354,0.036,0.0378,0.0382,0.0357,0.036,0.0314,0.0302,0.0209,0.0164,0.003,-0.0128,-0.0122,-0.0318,-0.033,-0.041,-0.0411,-0.0407,-0.0404,-0.0449,-0.0449,-0.0449,-0.0448,-0.0448,0,0.0327,0.0349,0.0378,0.0394,0.044,0.0429,0.0467,0.0452,0.0436,0.0447,0.0358,0.0332,0.0154,0.0024,-0.0126,-0.0298,-0.032,-0.041,-0.0445,-0.0388,-0.038,-0.0417,-0.0411,-0.0454,-0.0453,-0.0452,-0.0451,0,0.0341,0.0359,0.0399,0.0435,0.0456,0.0489,0.053,0.0554,0.0531,0.0537,0.0527,0.0407,0.0247,0.0053,-0.0178,-0.0282,-0.0458,-0.0518,-0.0458,-0.0488,-0.0528,-0.0518,-0.0628,-0.0628,-0.0628,-0.0629,-0.0629,0,0.0343,0.0369,0.0437,0.0476,0.0498,0.0553,0.0597,0.0603,0.0627,0.0588,0.0593,0.0447,0.035,0.0045,-0.0164,-0.0457,-0.0486,-0.0588,-0.0541,-0.0519,-0.0544,-0.0533,-0.0523,-0.0629,-0.0629,-0.0629,-0.0629,0,0.0351,0.0385,0.0425,0.0515,0.0578,0.0644,0.0705,0.0728,0.0739,0.0712,0.0659,0.0501,0.0318,0.0073,-0.0155,-0.0361,-0.0523,-0.0591,-0.0592,-0.0548,-0.0522,-0.0543,-0.0533,-0.063,-0.063,-0.063,-0.063,0,0.0364,0.0399,0.0473,0.055,0.0633,0.0718,0.0745,0.0782,0.0803,0.0763,0.074,0.0542,0.0416,0.012,-0.0091,-0.0287,-0.0333,-0.0386,-0.0399,-0.0401,-0.0271,-0.02,-0.0242,0,0,0,0,0,0.0377,0.0433,0.0504,0.06,0.0682,0.0741,0.0813,0.0832,0.0842,0.0826,0.0789,0.0625,0.0328,0.0185,-0.0004,-0.0112,-0.0383,-0.0341,-0.0454,-0.0633,-0.0633,-0.0514,0,0,0,0,0,0,0.0392,0.0465,0.051,0.0632,0.0704,0.0808,0.0862,0.0869,0.0857,0.0831,0.0675,0.059,0.0292,0.0443,-0.0003,-0.0067,-0.0162,-0.0489,-0.0493,-0.0634,-0.0633,-0.0632,-0.051,0,0,0,0,0]}]]